This is the latest recevied weather packets stored in our database for station/object p43g-13. If no packets are shown the sender has not sent any weather packets the latest 10 day(s).
| Time | Temp. | Humidity | Pressure | Rain* | Wind** | Luminosity | Snow |
|---|---|---|---|---|---|---|---|
| 1787524515 | 29.44° C | 84% | 1010.2 hPa | 0 mm | - | 22 W/m² | - |
| 1787524216 | 29.44° C | 84% | 1010.4 hPa | 0 mm | - | 27 W/m² | - |
| 1787523916 | 29.44° C | 84% | 1010.3 hPa | 0 mm | - | 32 W/m² | - |
| 1787523616 | 29.44° C | 83% | 1010.3 hPa | 0 mm | - | 30 W/m² | - |
| 1787523316 | 30° C | 83% | 1010.2 hPa | 0 mm | - | 38 W/m² | - |
| 1787523016 | 30° C | 83% | 1010.3 hPa | 0 mm | - | 41 W/m² | - |
| 1787522715 | 30° C | 83% | 1010.2 hPa | 0 mm | - | 50 W/m² | - |
| 1787522416 | 30° C | 82% | 1010 hPa | 0 mm | - | 33 W/m² | - |
| 1787522116 | 30° C | 82% | 1010.1 hPa | 0 mm | - | 37 W/m² | - |
| 1787521816 | 30° C | 81% | 1009.9 hPa | 0 mm | - | 41 W/m² | - |
| 1787521516 | 30° C | 82% | 1010 hPa | 0 mm | - | 44 W/m² | - |
| 1787521215 | 30° C | 81% | 1009.9 hPa | 0 mm | - | 48 W/m² | - |
| 1787520916 | 30.56° C | 81% | 1009.9 hPa | 0 mm | - | 62 W/m² | - |
| 1787520616 | 30.56° C | 80% | 1009.8 hPa | 0 mm | - | 77 W/m² | - |
| 1787520316 | 30.56° C | 79% | 1009.5 hPa | 0 mm | - | 98 W/m² | - |
| 1787520016 | 30.56° C | 79% | 1009.6 hPa | 0 mm | - | 175 W/m² | - |
| 1787519715 | 30.56° C | 79% | 1009.8 hPa | 0 mm | - | 198 W/m² | - |
| 1787519116 | 30° C | 80% | 1009.4 hPa | 0 mm | - | 140 W/m² | - |
| 1787518816 | 30.56° C | 80% | 1009.7 hPa | 0 mm | - | 118 W/m² | - |
| 1787518516 | 30.56° C | 79% | 1009.6 hPa | 0 mm | - | 98 W/m² | - |
| 1787518216 | 30.56° C | 79% | 1009.5 hPa | 0 mm | - | 154 W/m² | - |
| 1787517916 | 31.11° C | 78% | 1009.3 hPa | 0 mm | - | 322 W/m² | - |
| 1787517615 | 30.56° C | 79% | 1009.4 hPa | 0 mm | - | 291 W/m² | - |
| 1787517317 | 31.11° C | 79% | 1009.4 hPa | 0 mm | - | 392 W/m² | - |
| 1787517015 | 30.56° C | 78% | 1009.4 hPa | 0 mm | - | 314 W/m² | - |
* Rain latest hour (hover to see other rain measurements)
** Current wind speed in m/s (hover to see current wind gust speed)